sat.trackr.live / text

‹ back to catalog

STARLINK-32938

NORAD 63201 · 2025-048U

PAYLOAD ACTIVE UNKNOWN

§ Identity

Operator
Country
US
Launch date
2025-03-13
Launch site
AFETR
Launch vehicle
Mass (kg)
RCS (m²)

Purposes: comms

External: N2YO · Heavens-Above · Gunter

§ Orbital elements

Epoch: 2026-05-25T00:10:50.503008Z

Period
94.26 min
Inclination
43.0027°
Eccentricity
0.0001257
Mean motion
15.27633477 rev/d
Perigee alt
482.0 km
Apogee alt
483.8 km
Semi-major
6,861.0 km
B*
1.1935e-3
RAAN
14.3423°
Arg perigee
279.5425°
Mean anomaly
80.5285°
Rev number
6,876

§ Raw data

STARLINK-329381 63201U 25048U   26145.00752897  .00032781  00000+0  11935-2 0  99982 63201  43.0027  14.3423 0001257 279.5425  80.5285 15.27633477 68766

JSON: /api/v1/satellites/63201 · /tle

For live sub-satellite position, see the globe view (requires WebGL).

§ Visibility from observer

Set your observer location to see the next 7 days of passes ≥ 10°. The values pass through the URL so the page stays shareable.

No JS? Fill the form by hand. The geolocation button needs JavaScript.